Pisa, Italy

12:59 AM CET on December 16, 2019 (GMT +0100)
San Giusto

Weather History for LIRP - November, 2019

Change the Weather History Date:

Sunday, November 17, 2019

  Actual Average Record
Temperature  
Mean Temperature 53 °F -  
Max Temperature 57 °F 56 °F 66 °F (2006)
Min Temperature 49 °F 40 °F 30 °F (1998)
Degree Days  
Heating Degree Days 12    
Growing Degree Days 3 (Base 50)    
Moisture  
Dew Point 49 °F    
Average Humidity 84    
Maximum Humidity 100    
Minimum Humidity 62    
Precipitation  
Precipitation 0.39 in 0.13 in - ()
Sea Level Pressure  
Sea Level Pressure 29.60 in    
Wind  
Wind Speed 13 mph ()    
Max Wind Speed 26 mph    
Max Gust Speed 31 mph    
Visibility 6.1 miles    
Events Rain , Thunderstorm    
Averages and records for this station are not official NWS values.
T = Trace of Precipitation, MM = Missing Value Source: Averaged Metar Reports

Daily Weather History Graph

Daily Weather History Graph

Search for Another Location

Airport or City:

Astronomy

Nov. 17, 2019 Rise Set
Actual Time 7:14 AM CET 4:51 PM CET
Civil Twilight 6:43 AM CET 5:22 PM CET
Nautical Twilight 6:08 AM CET 5:57 PM CET
Astronomical Twilight 5:34 AM CET 6:31 PM CET
Moon 9:07 PM CET (11/17) 11:49 AM CET (11/17)
Length of Visible Light 10h 39m
Length of Day
9h 37m
Waning Gibbous, 76% of the Moon is Illuminated
Nov 17
Waning Gibbous
Nov 19
Last Quarter
Nov 26
New
Dec 4
First Quarter
Dec 12
Full

Hourly Weather History & Observations

Time (CET) Temp. Dew Point Humidity Pressure Visibility Wind Dir Wind Speed Gust Speed Precip Events Conditions
12:15 AM 50.0 °F 50.0 °F 100% 29.62 in 5.0 mi SSE 3.5 mph - N/A Rain , Thunderstorm Light Thunderstorms and Rain
12:45 AM 50.0 °F 50.0 °F 100% 29.59 in 6.2 mi East 16.1 mph - N/A Rain Light Rain
1:00 AM 50 °F 50 °F 100% 29.60 in 6 mi East 16.1 mph - - Thunderstorm Light Thunderstorm
1:15 AM 51.8 °F 51.8 °F 100% 29.53 in 6.2 mi ENE 20.7 mph - N/A Rain Light Rain
1:45 AM 53.6 °F 50.0 °F 88% 29.50 in 6.2 mi ENE 19.6 mph - N/A Rain Light Rain
2:15 AM 53.6 °F 50.0 °F 88% 29.53 in 6.2 mi ENE 20.7 mph - N/A   Mostly Cloudy
2:45 AM 53.6 °F 48.2 °F 82% 29.53 in 6.2 mi ENE 17.3 mph 28.8 mph N/A Rain Light Rain
3:45 AM 53.6 °F 50.0 °F 88% 29.50 in 6.2 mi ESE 17.3 mph 31.1 mph N/A   Mostly Cloudy
4:00 AM 54 °F 50 °F 82% 29.53 in 6 mi ESE 17.3 mph - -   Overcast
4:15 AM 53.6 °F 50.0 °F 88% 29.50 in 6.2 mi ESE 16.1 mph - N/A   Mostly Cloudy
4:45 AM 53.6 °F 51.8 °F 94% 29.47 in 6.2 mi East 26.5 mph - N/A Rain Light Rain
5:15 AM 53.6 °F 51.8 °F 94% 29.44 in 6.2 mi East 25.3 mph - N/A Rain Light Rain
5:45 AM 53.6 °F 53.6 °F 100% 29.44 in 3.1 mi East 21.9 mph - N/A Rain Light Rain
6:15 AM 55.4 °F 53.6 °F 94% 29.44 in 5.0 mi East 15.0 mph - N/A Rain Light Rain
6:45 AM 55.4 °F 53.6 °F 94% 29.47 in 5.0 mi East 23.0 mph - N/A Rain Light Rain
7:00 AM 55 °F 54 °F 96% 29.49 in 5 mi East 23.0 mph - - Rain Light Rain
7:15 AM 53.6 °F 53.6 °F 100% 29.44 in 5.0 mi ENE 13.8 mph - N/A Rain Light Rain
7:45 AM 53.6 °F 53.6 °F 100% 29.47 in 1.9 mi SSE 8.1 mph - N/A Rain Light Rain
8:45 AM 53.6 °F 51.8 °F 94% 29.47 in 6.2 mi SE 15.0 mph - N/A   Mostly Cloudy
9:15 AM 53.6 °F 53.6 °F 100% 29.50 in 6.2 mi SE 13.8 mph - N/A Rain Light Rain
9:45 AM 53.6 °F 53.6 °F 100% 29.53 in 5.0 mi ESE 11.5 mph - N/A Rain Light Rain
10:00 AM 54 °F 53 °F 95% 29.54 in 4 mi ESE 11.5 mph - - Rain Light Rain
10:45 AM 53.6 °F 51.8 °F 94% 29.56 in 6.2 mi WSW 18.4 mph - N/A Rain Light Rain
11:15 AM 53.6 °F 50.0 °F 88% 29.59 in 6.2 mi WSW 11.5 mph - N/A   Mostly Cloudy
11:45 AM 55.4 °F 51.8 °F 88% 29.59 in 6.2 mi WSW 13.8 mph - N/A   Mostly Cloudy
12:15 PM 57.2 °F 50.0 °F 77% 29.62 in 6.2 mi West 13.8 mph - N/A   Mostly Cloudy
12:45 PM 57.2 °F 50.0 °F 77% 29.65 in 6.2 mi West 11.5 mph - N/A   Mostly Cloudy
1:00 PM 57 °F 50 °F 70% 29.65 in 12 mi West 11.5 mph - -   Partly Cloudy
1:15 PM 55.4 °F 50.0 °F 82% 29.65 in 6.2 mi West 8.1 mph - N/A   Mostly Cloudy
1:45 PM 55.4 °F 48.2 °F 77% 29.65 in 6.2 mi West 5.8 mph - N/A   Mostly Cloudy
2:15 PM 55.4 °F 48.2 °F 77% 29.65 in 6.2 mi NW 5.8 mph - N/A   Mostly Cloudy
2:45 PM 55.4 °F 48.2 °F 77% 29.65 in 6.2 mi WNW 3.5 mph - N/A   Scattered Clouds
3:15 PM 55.4 °F 48.2 °F 77% 29.65 in 6.2 mi WSW 2.3 mph - N/A   Scattered Clouds
3:45 PM 55.4 °F 46.4 °F 72% 29.68 in 6.2 mi WSW 10.4 mph - N/A   Mostly Cloudy
4:00 PM 56 °F 47 °F 62% 29.68 in 12 mi WSW 10.4 mph - -   Mostly Cloudy
4:15 PM 55.4 °F 44.6 °F 67% 29.68 in 6.2 mi WSW 15.0 mph - N/A   Mostly Cloudy
5:15 PM 55.4 °F 44.6 °F 67% 29.71 in 6.2 mi WSW 11.5 mph - N/A   Mostly Cloudy
5:45 PM 55.4 °F 44.6 °F 67% 29.71 in 6.2 mi WSW 13.8 mph - N/A   Mostly Cloudy
7:00 PM 54 °F 46 °F 66% 29.73 in 6 mi SW 6.9 mph - -   Mostly Cloudy
7:15 PM 53.6 °F 44.6 °F 72% 29.74 in 6.2 mi WSW 11.5 mph - N/A   Mostly Cloudy
8:15 PM 55.4 °F 44.6 °F 67% 29.74 in 6.2 mi SW 8.1 mph - N/A   Mostly Cloudy
8:45 PM 55.4 °F 46.4 °F 72% 29.74 in 6.2 mi SW 10.4 mph - N/A Rain , Thunderstorm Light Thunderstorms and Rain
9:45 PM 53.6 °F 48.2 °F 82% 29.77 in 6.2 mi SSW 15.0 mph - N/A Rain Light Rain
10:15 PM 53.6 °F 44.6 °F 72% 29.77 in 6.2 mi WNW 12.7 mph - N/A Rain Light Rain
10:45 PM 51.8 °F 42.8 °F 71% 29.77 in 6.2 mi SW 10.4 mph - N/A Rain Light Rain
11:15 PM 51.8 °F 42.8 °F 71% 29.77 in 6.2 mi SW 10.4 mph - N/A Rain Light Rain
11:45 PM 53.6 °F 44.6 °F 72% 29.77 in 6.2 mi West 11.5 mph - N/A   Mostly Cloudy